| time (UTC) | temp F | wind direction | speed knots | gust knots | rain 1hr in | rain 24hr in | rain mn in | humidity % | barometer mb |
| 20260905193555 | 80 | 134 | 2.6 | 7.0 | 0.00 | 0.00 | 0.00 | 54 | 1009.2 |
| 20260905193058 | 79 | 126 | 2.6 | 7.0 | 0.00 | 0.00 | 0.00 | 54 | 1009.2 |
| 20260905191044 | 79 | 66 | 3.5 | 8.7 | 0.00 | 0.00 | 0.00 | 55 | 1009.2 |
| 20260905190545 | 79 | 129 | 2.6 | 8.7 | 0.00 | 0.00 | 0.00 | 55 | 1009.2 |
| 20260905190044 | 79 | 153 | 1.7 | 4.3 | 0.00 | 0.00 | 0.00 | 56 | 1009.2 |
| 20260905185541 | 79 | 108 | 1.7 | 6.1 | 0.00 | 0.00 | 0.00 | 56 | 1009.2 |
| 20260905185041 | 78 | 76 | 1.7 | 6.1 | 0.00 | 0.00 | 0.00 | 58 | 1009.2 |
| 20260905184541 | 78 | 101 | 1.7 | 7.0 | 0.00 | 0.00 | 0.00 | 59 | 1009.2 |
| 20260905184038 | 77 | 133 | 2.6 | 7.0 | 0.00 | 0.00 | 0.00 | 60 | 1009.2 |
| 20260905183037 | 77 | 128 | 2.6 | 7.0 | 0.00 | 0.00 | 0.00 | 62 | 1009.2 |
| 20260905182536 | 77 | 67 | 2.6 | 6.1 | 0.00 | 0.00 | 0.00 | 62 | 1009.2 |
| 20260905182034 | 77 | 127 | 2.6 | 6.1 | 0.00 | 0.00 | 0.00 | 61 | 1009.2 |
| 20260905181534 | 78 | 88 | 2.6 | 4.3 | 0.00 | 0.00 | 0.00 | 61 | 1009.2 |
| 20260905181030 | 77 | 61 | 2.6 | 7.0 | 0.00 | 0.00 | 0.00 | 62 | 1009.2 |
| 20260905180532 | 76 | 36 | 2.6 | 7.0 | 0.00 | 0.00 | 0.00 | 62 | 1009.2 |
| 20260905180029 | 77 | 82 | 2.6 | 5.2 | 0.00 | 0.00 | 0.00 | 62 | 1009.2 |
| 20260905175528 | 76 | 48 | 1.7 | 5.2 | 0.00 | 0.00 | 0.00 | 64 | 1009.2 |
| 20260905175026 | 75 | 112 | 2.6 | 7.0 | 0.00 | 0.00 | 0.00 | 65 | 1009.2 |
| 20260905174528 | 75 | 119 | 2.6 | 7.0 | 0.00 | 0.00 | 0.00 | 65 | 1009.2 |
| 20260905174027 | 75 | 80 | 2.6 | 6.1 | 0.00 | 0.00 | 0.00 | 65 | 1009.1 |
| 20260905173520 | 75 | 70 | 2.6 | 6.1 | 0.00 | 0.00 | 0.00 | 65 | 1009.1 |
| 20260905173018 | 75 | 61 | 2.6 | 4.3 | 0.00 | 0.00 | 0.00 | 66 | 1009.1 |
| 20260905172514 | 74 | 65 | 1.7 | 4.3 | 0.00 | 0.00 | 0.00 | 67 | 1009.1 |
| 20260905172013 | 74 | 69 | 1.7 | 4.3 | 0.00 | 0.00 | 0.00 | 68 | 1009.1 |
| 20260905171009 | 73 | 56 | 1.7 | 4.3 | 0.00 | 0.00 | 0.00 | 69 | 1009.1 |
| 20260905170509 | 72 | 80 | 1.7 | 4.3 | 0.00 | 0.00 | 0.00 | 70 | 1009.1 |
| 20260905170012 | 71 | 87 | 1.7 | 4.3 | 0.00 | 0.00 | 0.00 | 70 | 1009.0 |
| 20260905165510 | 71 | 87 | 1.7 | 4.3 | 0.00 | 0.00 | 0.00 | 72 | 1009.0 |
| 20260905165005 | 71 | 52 | 1.7 | 4.3 | 0.00 | 0.00 | 0.00 | 72 | 1009.0 |
| 20260905164505 | 71 | 49 | 2.6 | 4.3 | 0.00 | 0.00 | 0.00 | 73 | 1009.0 |
| 20260905164006 | 70 | 46 | 1.7 | 4.3 | 0.00 | 0.00 | 0.00 | 75 | 1009.0 |
| 20260905163002 | 68 | 63 | 2.6 | 5.2 | 0.00 | 0.00 | 0.00 | 78 | 1009.0 |
| 20260905162500 | 67 | 59 | 2.6 | 5.2 | 0.00 | 0.00 | 0.00 | 80 | 1009.0 |
| 20260905161955 | 67 | 63 | 2.6 | 4.3 | 0.00 | 0.00 | 0.00 | 80 | 1009.0 |
| 20260905161458 | 67 | 69 | 1.7 | 4.3 | 0.00 | 0.00 | 0.00 | 80 | 1009.0 |
| 20260905160956 | 66 | 51 | 0.9 | 4.3 | 0.00 | 0.00 | 0.00 | 82 | 1009.0 |
| 20260905160454 | 66 | 121 | 0.9 | 4.3 | 0.00 | 0.00 | 0.00 | 83 | 1009.0 |
| 20260905155451 | 64 | 65 | 1.7 | 6.1 | 0.00 | 0.00 | 0.00 | 85 | 1008.9 |
| 20260905154948 | 64 | 71 | 1.7 | 6.1 | 0.00 | 0.00 | 0.00 | 86 | 1008.9 |
| 20260905154449 | 64 | 88 | 1.7 | 6.1 | 0.00 | 0.00 | 0.00 | 86 | 1008.9 |
| 20260905153945 | 63 | 78 | 1.7 | 6.1 | 0.00 | 0.00 | 0.00 | 87 | 1008.6 |
| 20260905153445 | 63 | 72 | 1.7 | 6.1 | 0.00 | 0.00 | 0.00 | 88 | 1008.5 |
| 20260905152940 | 63 | 57 | 0.9 | 6.1 | 0.00 | 0.00 | 0.00 | 88 | 1008.5 |
| 20260905152441 | 62 | 57 | 0.0 | 4.3 | 0.00 | 0.00 | 0.00 | 90 | 1008.6 |
| 20260905151942 | 62 | 92 | 0.0 | 4.3 | 0.00 | 0.00 | 0.00 | 90 | 1008.6 |
| 20260905151439 | 61 | 285 | 0.0 | 0.0 | 0.00 | 0.00 | 0.00 | 91 | 1008.6 |
| 20260905150430 | 60 | 285 | 0.0 | 0.0 | 0.00 | 0.00 | 0.00 | 93 | 1008.5 |
| 20260905145424 | 59 | 285 | 0.0 | 0.0 | 0.00 | 0.00 | 0.00 | 94 | 1008.4 |
| 20260905144924 | 58 | 285 | 0.0 | 0.0 | 0.00 | 0.00 | 0.00 | 95 | 1008.4 |
| 20260905144426 | 57 | 285 | 0.0 | 0.0 | 0.00 | 0.00 | 0.00 | 95 | 1008.4 |
| 20260905143417 | 56 | 284 | 0.0 | 0.0 | 0.00 | 0.00 | 0.00 | 95 | 1008.2 |
| 20260905142916 | 55 | 285 | 0.0 | 0.0 | 0.00 | 0.00 | 0.00 | 95 | 1008.1 |
| 20260905142416 | 54 | 284 | 0.0 | 0.0 | 0.00 | 0.00 | 0.00 | 95 | 1007.8 |
| 20260905141914 | 54 | 284 | 0.0 | 0.0 | 0.00 | 0.00 | 0.00 | 95 | 1007.8 |
| 20260905141415 | 53 | 284 | 0.0 | 0.0 | 0.00 | 0.00 | 0.00 | 94 | 1007.8 |
| 20260905140914 | 53 | 285 | 0.0 | 0.0 | 0.00 | 0.00 | 0.00 | 94 | 1007.8 |
| 20260905140412 | 53 | 284 | 0.0 | 0.0 | 0.00 | 0.00 | 0.00 | 94 | 1007.8 |
| 20260905135909 | 53 | 284 | 0.0 | 0.0 | 0.00 | 0.00 | 0.00 | 93 | 1007.8 |
| 20260905135405 | 53 | 284 | 0.0 | 0.0 | 0.00 | 0.00 | 0.00 | 94 | 1007.8 |
| 20260905134907 | 53 | 284 | 0.0 | 0.0 | 0.00 | 0.00 | 0.00 | 93 | 1007.8 |
| 20260905133859 | 53 | 284 | 0.0 | 0.0 | 0.00 | 0.00 | 0.00 | 93 | 1007.7 |
| 20260905133358 | 53 | 284 | 0.0 | 0.0 | 0.00 | 0.00 | 0.00 | 93 | 1007.7 |
| 20260905132856 | 53 | 284 | 0.0 | 0.0 | 0.00 | 0.00 | 0.00 | 93 | 1007.7 |
| 20260905132352 | 53 | 284 | 0.0 | 0.0 | 0.00 | 0.00 | 0.00 | 93 | 1007.7 |
| 20260905131847 | 53 | 284 | 0.0 | 0.0 | 0.00 | 0.00 | 0.00 | 93 | 1007.7 |
| 20260905131349 | 53 | 284 | 0.0 | 0.0 | 0.00 | 0.00 | 0.00 | 93 | 1007.7 |
| 20260905130847 | 53 | 284 | 0.0 | 0.0 | 0.00 | 0.00 | 0.00 | 93 | 1007.7 |
| 20260905130344 | 54 | 284 | 0.0 | 0.0 | 0.00 | 0.00 | 0.00 | 93 | 1007.7 |
| 20260905125846 | 53 | 284 | 0.0 | 0.0 | 0.00 | 0.00 | 0.00 | 93 | 1007.7 |
| 20260905125340 | 53 | 284 | 0.0 | 0.0 | 0.00 | 0.00 | 0.00 | 93 | 1007.7 |
| 20260905124841 | 54 | 284 | 0.0 | 0.0 | 0.00 | 0.00 | 0.00 | 93 | 1007.7 |
| 20260905124337 | 54 | 284 | 0.0 | 0.0 | 0.00 | 0.00 | 0.00 | 93 | 1007.7 |
| 20260905123337 | 54 | 284 | 0.0 | 0.0 | 0.00 | 0.00 | 0.00 | 93 | 1007.7 |
| 20260905122834 | 54 | 284 | 0.0 | 0.0 | 0.00 | 0.00 | 0.00 | 93 | 1007.7 |
| 20260905121827 | 54 | 284 | 0.0 | 0.0 | 0.00 | 0.00 | 0.00 | 92 | 1007.7 |
| 20260905121325 | 54 | 284 | 0.0 | 0.0 | 0.00 | 0.00 | 0.00 | 92 | 1007.7 |
| 20260905120825 | 54 | 284 | 0.0 | 0.0 | 0.00 | 0.00 | 0.00 | 92 | 1007.7 |
| 20260905120324 | 54 | 284 | 0.0 | 0.0 | 0.00 | 0.00 | 0.00 | 92 | 1007.7 |
| 20260905115826 | 54 | 284 | 0.0 | 0.0 | 0.00 | 0.00 | 0.00 | 92 | 1007.7 |
| 20260905115324 | 54 | 284 | 0.0 | 0.0 | 0.00 | 0.00 | 0.00 | 92 | 1007.7 |
| 20260905114823 | 54 | 284 | 0.0 | 0.0 | 0.00 | 0.00 | 0.00 | 92 | 1007.7 |
| 20260905114321 | 54 | 284 | 0.0 | 0.0 | 0.00 | 0.00 | 0.00 | 92 | 1007.8 |
| 20260905113818 | 54 | 284 | 0.0 | 0.0 | 0.00 | 0.00 | 0.00 | 92 | 1007.8 |
| 20260905113313 | 54 | 284 | 0.0 | 0.0 | 0.00 | 0.00 | 0.00 | 92 | 1007.8 |
| 20260905112812 | 54 | 284 | 0.0 | 0.0 | 0.00 | 0.00 | 0.00 | 91 | 1007.8 |
| 20260905112311 | 54 | 284 | 0.0 | 0.0 | 0.00 | 0.00 | 0.00 | 91 | 1007.8 |
| 20260905111807 | 54 | 284 | 0.0 | 0.0 | 0.00 | 0.00 | 0.00 | 91 | 1007.8 |
| 20260905111304 | 55 | 284 | 0.0 | 0.0 | 0.00 | 0.00 | 0.00 | 91 | 1007.9 |
| 20260905110801 | 55 | 284 | 0.0 | 0.0 | 0.00 | 0.00 | 0.00 | 91 | 1007.9 |
| 20260905110302 | 55 | 284 | 0.0 | 0.0 | 0.00 | 0.00 | 0.00 | 91 | 1007.9 |
| 20260905105756 | 55 | 284 | 0.0 | 0.0 | 0.00 | 0.00 | 0.00 | 91 | 1007.9 |
| 20260905105256 | 55 | 284 | 0.0 | 0.0 | 0.00 | 0.00 | 0.00 | 91 | 1007.9 |
| 20260905104253 | 55 | 284 | 0.0 | 0.0 | 0.00 | 0.00 | 0.00 | 91 | 1008.1 |
| 20260905103751 | 55 | 284 | 0.0 | 0.0 | 0.00 | 0.00 | 0.00 | 90 | 1008.2 |
| 20260905103248 | 55 | 284 | 0.0 | 0.0 | 0.00 | 0.00 | 0.00 | 90 | 1008.2 |
| 20260905102748 | 55 | 284 | 0.0 | 0.0 | 0.00 | 0.00 | 0.00 | 90 | 1008.3 |
| 20260905101747 | 56 | 284 | 0.0 | 0.0 | 0.00 | 0.00 | 0.00 | 90 | 1008.3 |
| 20260905101242 | 56 | 284 | 0.0 | 0.0 | 0.00 | 0.00 | 0.00 | 90 | 1008.3 |
| 20260905100746 | 56 | 284 | 0.0 | 0.0 | 0.00 | 0.00 | 0.00 | 90 | 1008.3 |
| 20260905100242 | 56 | 284 | 0.0 | 0.0 | 0.00 | 0.00 | 0.00 | 89 | 1008.3 |
| 20260905095740 | 56 | 284 | 0.0 | 0.0 | 0.00 | 0.00 | 0.00 | 89 | 1008.4 |
| 20260905095233 | 56 | 284 | 0.0 | 0.0 | 0.00 | 0.00 | 0.00 | 89 | 1008.4 |
| 20260905094734 | 56 | 284 | 0.0 | 0.0 | 0.00 | 0.00 | 0.00 | 89 | 1008.4 |
| 20260905094232 | 56 | 284 | 0.0 | 0.0 | 0.00 | 0.00 | 0.00 | 89 | 1008.4 |
| 20260905093730 | 56 | 284 | 0.0 | 0.0 | 0.00 | 0.00 | 0.00 | 89 | 1008.4 |
| 20260905092226 | 57 | 284 | 0.0 | 0.0 | 0.00 | 0.00 | 0.00 | 89 | 1008.5 |
| 20260905091725 | 57 | 284 | 0.0 | 0.0 | 0.00 | 0.00 | 0.00 | 88 | 1008.5 |
| 20260905091224 | 57 | 284 | 0.0 | 0.0 | 0.00 | 0.00 | 0.00 | 89 | 1008.5 |
| 20260905090216 | 57 | 284 | 0.0 | 0.0 | 0.00 | 0.00 | 0.00 | 89 | 1008.5 |
| 20260905085708 | 57 | 284 | 0.0 | 0.0 | 0.00 | 0.00 | 0.00 | 89 | 1008.6 |
| 20260905085213 | 57 | 284 | 0.0 | 0.0 | 0.00 | 0.00 | 0.00 | 89 | 1008.6 |
| 20260905084706 | 57 | 284 | 0.0 | 0.0 | 0.00 | 0.00 | 0.00 | 89 | 1008.6 |
| 20260905084201 | 57 | 284 | 0.0 | 0.0 | 0.00 | 0.00 | 0.00 | 89 | 1008.9 |
| 20260905083700 | 57 | 284 | 0.0 | 0.0 | 0.00 | 0.00 | 0.00 | 88 | 1008.9 |
| 20260905082156 | 58 | 284 | 0.0 | 0.0 | 0.00 | 0.00 | 0.00 | 88 | 1008.9 |
| 20260905081648 | 58 | 284 | 0.0 | 0.0 | 0.00 | 0.00 | 0.00 | 88 | 1008.9 |
| 20260905081152 | 58 | 284 | 0.0 | 0.0 | 0.00 | 0.00 | 0.00 | 88 | 1009.0 |
| 20260905080652 | 58 | 284 | 0.0 | 0.0 | 0.00 | 0.00 | 0.00 | 88 | 1009.0 |
| 20260905080147 | 58 | 284 | 0.0 | 0.0 | 0.00 | 0.00 | 0.00 | 88 | 1009.0 |
| 20260905075647 | 58 | 284 | 0.0 | 0.0 | 0.00 | 0.00 | 0.00 | 89 | 1009.0 |
| 20260905075145 | 58 | 284 | 0.0 | 0.0 | 0.00 | 0.00 | 0.00 | 89 | 1009.0 |
| 20260905074643 | 58 | 284 | 0.0 | 0.0 | 0.00 | 0.00 | 0.00 | 89 | 1009.0 |
| 20260905074141 | 58 | 284 | 0.0 | 0.0 | 0.00 | 0.00 | 0.00 | 89 | 1009.0 |
| 20260905073640 | 58 | 284 | 0.0 | 0.0 | 0.00 | 0.00 | 0.00 | 89 | 1009.0 |
| 20260905072136 | 58 | 285 | 0.0 | 0.0 | 0.00 | 0.00 | 0.00 | 88 | 1009.0 |
| 20260905071637 | 58 | 284 | 0.0 | 0.0 | 0.00 | 0.00 | 0.00 | 88 | 1009.0 |
| 20260905071135 | 58 | 284 | 0.0 | 0.0 | 0.00 | 0.00 | 0.00 | 88 | 1008.9 |
| 20260905070636 | 58 | 284 | 0.0 | 0.0 | 0.00 | 0.00 | 0.00 | 88 | 1008.9 |
| 20260905070130 | 58 | 284 | 0.0 | 0.0 | 0.00 | 0.00 | 0.00 | 87 | 1008.9 |
| 20260905065628 | 58 | 284 | 0.0 | 0.0 | 0.00 | 0.00 | 0.00 | 87 | 1008.7 |
| 20260905064622 | 58 | 284 | 0.0 | 0.0 | 0.00 | 0.00 | 0.00 | 87 | 1008.7 |
| 20260905064118 | 58 | 285 | 0.0 | 0.0 | 0.00 | 0.00 | 0.00 | 86 | 1008.9 |
| 20260905063617 | 58 | 284 | 0.0 | 0.0 | 0.00 | 0.00 | 0.00 | 86 | 1008.9 |
| 20260905063114 | 58 | 284 | 0.0 | 0.0 | 0.00 | 0.00 | 0.00 | 87 | 1008.9 |
| 20260905062613 | 58 | 285 | 0.0 | 0.0 | 0.00 | 0.00 | 0.00 | 87 | 1008.9 |
| 20260905062111 | 59 | 284 | 0.0 | 0.0 | 0.00 | 0.00 | 0.00 | 87 | 1008.9 |
| 20260905061606 | 59 | 284 | 0.0 | 0.0 | 0.00 | 0.00 | 0.00 | 87 | 1008.9 |
| 20260905061107 | 59 | 284 | 0.0 | 0.0 | 0.00 | 0.00 | 0.00 | 87 | 1009.0 |
| 20260905060105 | 59 | 284 | 0.0 | 0.0 | 0.00 | 0.00 | 0.00 | 87 | 1009.0 |
| 20260905055606 | 59 | 284 | 0.0 | 0.0 | 0.00 | 0.00 | 0.00 | 87 | 1009.0 |
| 20260905054559 | 59 | 285 | 0.0 | 0.0 | 0.00 | 0.00 | 0.00 | 88 | 1009.0 |
| 20260905054059 | 59 | 284 | 0.0 | 0.0 | 0.00 | 0.00 | 0.00 | 88 | 1009.0 |
| 20260905053559 | 59 | 284 | 0.0 | 0.0 | 0.00 | 0.00 | 0.00 | 88 | 1009.0 |
| 20260905053053 | 59 | 284 | 0.0 | 0.0 | 0.00 | 0.00 | 0.00 | 89 | 1009.0 |
| 20260905052546 | 60 | 284 | 0.0 | 0.0 | 0.00 | 0.00 | 0.00 | 89 | 1009.0 |
| 20260905052040 | 60 | 284 | 0.0 | 0.0 | 0.00 | 0.00 | 0.00 | 89 | 1009.0 |
| 20260905051039 | 60 | 284 | 0.0 | 0.0 | 0.00 | 0.00 | 0.00 | 89 | 1009.0 |
| 20260905050540 | 60 | 284 | 0.0 | 0.0 | 0.00 | 0.00 | 0.00 | 88 | 1009.0 |
| 20260905050037 | 60 | 284 | 0.0 | 0.0 | 0.00 | 0.00 | 0.00 | 88 | 1009.0 |
| 20260905045529 | 60 | 285 | 0.0 | 0.0 | 0.00 | 0.00 | 0.00 | 88 | 1009.0 |
| 20260905045026 | 60 | 284 | 0.0 | 0.0 | 0.00 | 0.00 | 0.00 | 88 | 1009.0 |
| 20260905044528 | 60 | 285 | 0.0 | 0.0 | 0.00 | 0.00 | 0.00 | 88 | 1009.0 |
| 20260905044023 | 61 | 284 | 0.0 | 0.0 | 0.00 | 0.00 | 0.00 | 88 | 1008.7 |
| 20260905043515 | 61 | 284 | 0.0 | 0.0 | 0.00 | 0.00 | 0.00 | 88 | 1008.7 |
| 20260905043010 | 61 | 284 | 0.0 | 0.0 | 0.00 | 0.00 | 0.00 | 87 | 1008.7 |
| 20260905042508 | 61 | 285 | 0.0 | 0.0 | 0.00 | 0.00 | 0.00 | 87 | 1008.7 |
| 20260905041507 | 62 | 284 | 0.0 | 0.0 | 0.00 | 0.00 | 0.00 | 88 | 1008.7 |
| 20260905040502 | 62 | 284 | 0.0 | 0.0 | 0.00 | 0.00 | 0.00 | 88 | 1008.5 |
| 20260905040001 | 62 | 285 | 0.0 | 0.0 | 0.00 | 0.00 | 0.00 | 88 | 1008.5 |
| 20260905035459 | 62 | 285 | 0.0 | 0.0 | 0.00 | 0.00 | 0.00 | 88 | 1008.4 |
| 20260905034956 | 62 | 284 | 0.0 | 0.0 | 0.00 | 0.00 | 0.00 | 88 | 1008.4 |
| 20260905034453 | 62 | 284 | 0.0 | 0.0 | 0.00 | 0.00 | 0.00 | 88 | 1008.4 |
| 20260905033950 | 62 | 284 | 0.0 | 0.0 | 0.00 | 0.00 | 0.00 | 88 | 1008.3 |
| 20260905033449 | 63 | 284 | 0.0 | 1.7 | 0.00 | 0.00 | 0.00 | 88 | 1008.3 |
| 20260905032947 | 63 | 285 | 0.0 | 1.7 | 0.00 | 0.00 | 0.00 | 88 | 1008.3 |
| 20260905032448 | 63 | 284 | 0.0 | 0.0 | 0.00 | 0.00 | 0.00 | 88 | 1008.3 |
| 20260905031947 | 63 | 284 | 0.0 | 0.0 | 0.00 | 0.00 | 0.00 | 87 | 1008.3 |
| 20260905025938 | 64 | 284 | 0.0 | 1.7 | 0.00 | 0.00 | 0.00 | 87 | 1008.1 |
| 20260905025431 | 64 | 284 | 0.9 | 4.3 | 0.00 | 0.00 | 0.00 | 87 | 1008.0 |
| 20260905024928 | 64 | 284 | 0.9 | 4.3 | 0.00 | 0.00 | 0.00 | 87 | 1008.0 |
| 20260905024426 | 65 | 285 | 1.7 | 5.2 | 0.00 | 0.00 | 0.00 | 87 | 1008.0 |
| 20260905023921 | 65 | 285 | 1.7 | 5.2 | 0.00 | 0.00 | 0.00 | 86 | 1008.0 |
| 20260905023420 | 65 | 284 | 1.7 | 4.3 | 0.00 | 0.00 | 0.00 | 86 | 1008.0 |
| 20260905022919 | 65 | 284 | 1.7 | 4.3 | 0.00 | 0.00 | 0.00 | 86 | 1008.0 |
| 20260905022418 | 65 | 284 | 1.7 | 4.3 | 0.00 | 0.00 | 0.00 | 85 | 1008.0 |
| 20260905021912 | 66 | 281 | 2.6 | 6.1 | 0.00 | 0.00 | 0.00 | 85 | 1008.0 |
| 20260905021410 | 66 | 281 | 2.6 | 6.1 | 0.00 | 0.00 | 0.00 | 84 | 1008.0 |
| 20260905020909 | 67 | 275 | 2.6 | 6.1 | 0.00 | 0.00 | 0.00 | 82 | 1008.0 |
| 20260905020409 | 67 | 315 | 2.6 | 5.2 | 0.00 | 0.00 | 0.00 | 81 | 1008.0 |
| 20260905015909 | 68 | 336 | 1.7 | 4.3 | 0.00 | 0.00 | 0.00 | 81 | 1008.0 |
| 20260905014907 | 68 | 299 | 1.7 | 5.2 | 0.00 | 0.00 | 0.00 | 80 | 1007.9 |
| 20260905013857 | 69 | 299 | 1.7 | 4.3 | 0.00 | 0.00 | 0.00 | 78 | 1007.9 |
| 20260905013356 | 69 | 299 | 1.7 | 4.3 | 0.00 | 0.00 | 0.00 | 77 | 1007.9 |
| 20260905012357 | 70 | 322 | 1.7 | 5.2 | 0.00 | 0.00 | 0.00 | 76 | 1007.8 |
| 20260905011855 | 71 | 325 | 1.7 | 5.2 | 0.00 | 0.00 | 0.00 | 75 | 1007.8 |
| 20260905011355 | 71 | 325 | 2.6 | 7.8 | 0.00 | 0.00 | 0.00 | 76 | 1007.9 |
| 20260905010853 | 71 | 267 | 3.5 | 7.8 | 0.00 | 0.00 | 0.00 | 75 | 1007.9 |
| 20260905010351 | 72 | 314 | 3.5 | 6.1 | 0.00 | 0.00 | 0.00 | 74 | 1007.9 |
| 20260905005850 | 72 | 315 | 2.6 | 7.0 | 0.00 | 0.00 | 0.00 | 75 | 1008.0 |
| 20260905005350 | 72 | 325 | 3.5 | 7.0 | 0.00 | 0.00 | 0.00 | 74 | 1008.0 |
| 20260905004849 | 72 | 267 | 3.5 | 7.0 | 0.00 | 0.00 | 0.00 | 72 | 1008.0 |
| 20260905004353 | 73 | 316 | 3.5 | 7.8 | 0.00 | 0.00 | 0.00 | 73 | 1007.9 |
| 20260905003848 | 73 | 313 | 3.5 | 7.8 | 0.00 | 0.00 | 0.00 | 72 | 1007.9 |
| 20260905003347 | 73 | 336 | 2.6 | 6.1 | 0.00 | 0.00 | 0.00 | 72 | 1007.9 |
| 20260905002844 | 74 | 315 | 2.6 | 7.0 | 0.00 | 0.00 | 0.00 | 70 | 1007.8 |
| 20260905001340 | 74 | 340 | 3.5 | 7.8 | 0.00 | 0.00 | 0.00 | 70 | 1007.6 |
| 20260905000837 | 75 | 15 | 2.6 | 7.8 | 0.00 | 0.00 | 0.00 | 70 | 1007.6 |
| 20260905000334 | 75 | 333 | 3.5 | 7.0 | 0.00 | 0.00 | 0.00 | 69 | 1007.6 |
| 20260904235834 | 75 | 315 | 3.5 | 7.8 | 0.00 | 0.00 | 0.00 | 69 | 1007.5 |
| 20260904235331 | 75 | 346 | 3.5 | 7.8 | 0.00 | 0.00 | 0.00 | 69 | 1007.5 |
| 20260904234835 | 75 | 337 | 3.5 | 7.8 | 0.00 | 0.00 | 0.00 | 69 | 1007.5 |
| 20260904234330 | 75 | 0 | 4.3 | 7.8 | 0.00 | 0.00 | 0.00 | 69 | 1007.5 |
| 20260904233829 | 76 | 314 | 3.5 | 7.8 | 0.00 | 0.00 | 0.00 | 68 | 1007.5 |
| 20260904233328 | 76 | 341 | 3.5 | 8.7 | 0.00 | 0.00 | 0.00 | 67 | 1007.5 |
| 20260904232825 | 76 | 21 | 3.5 | 8.7 | 0.00 | 0.00 | 0.00 | 67 | 1007.5 |
| 20260904232327 | 77 | 325 | 3.5 | 7.0 | 0.00 | 0.00 | 0.00 | 66 | 1007.5 |
| 20260904231825 | 76 | 326 | 4.3 | 7.8 | 0.00 | 0.00 | 0.00 | 67 | 1007.5 |
| 20260904231324 | 77 | 322 | 3.5 | 7.8 | 0.00 | 0.00 | 0.00 | 64 | 1007.5 |
| 20260904230823 | 78 | 0 | 2.6 | 7.0 | 0.00 | 0.00 | 0.00 | 64 | 1007.5 |
| 20260904230325 | 78 | 311 | 2.6 | 6.1 | 0.00 | 0.00 | 0.00 | 65 | 1007.5 |
| 20260904225316 | 78 | 339 | 3.5 | 8.7 | 0.00 | 0.00 | 0.00 | 64 | 1007.7 |
| 20260904224315 | 78 | 316 | 3.5 | 7.8 | 0.00 | 0.00 | 0.00 | 64 | 1007.7 |
| 20260904223814 | 78 | 329 | 3.5 | 7.8 | 0.00 | 0.00 | 0.00 | 64 | 1007.7 |
| 20260904223312 | 78 | 257 | 3.5 | 7.8 | 0.00 | 0.00 | 0.00 | 65 | 1007.7 |
| 20260904222813 | 77 | 331 | 4.3 | 7.8 | 0.00 | 0.00 | 0.00 | 65 | 1007.8 |
| 20260904222308 | 78 | 317 | 4.3 | 9.6 | 0.00 | 0.00 | 0.00 | 64 | 1007.8 |
| 20260904221807 | 79 | 320 | 3.5 | 9.6 | 0.00 | 0.00 | 0.00 | 63 | 1007.8 |
| 20260904221310 | 78 | 319 | 4.3 | 7.8 | 0.00 | 0.00 | 0.00 | 63 | 1007.9 |
| 20260904220805 | 78 | 313 | 4.3 | 8.7 | 0.00 | 0.00 | 0.00 | 63 | 1007.9 |
| 20260904220304 | 79 | 309 | 3.5 | 8.7 | 0.00 | 0.00 | 0.00 | 63 | 1007.9 |
| 20260904215804 | 78 | 317 | 3.5 | 8.7 | 0.00 | 0.00 | 0.00 | 63 | 1007.9 |
| 20260904215300 | 78 | 327 | 4.3 | 7.8 | 0.00 | 0.00 | 0.00 | 64 | 1007.9 |
| 20260904214759 | 79 | 310 | 4.3 | 9.6 | 0.00 | 0.00 | 0.00 | 61 | 1007.9 |
| 20260904214254 | 79 | 306 | 3.5 | 9.6 | 0.00 | 0.00 | 0.00 | 62 | 1007.9 |
| 20260904213753 | 78 | 310 | 4.3 | 7.8 | 0.00 | 0.00 | 0.00 | 64 | 1007.9 |
| 20260904213251 | 79 | 320 | 4.3 | 7.8 | 0.00 | 0.00 | 0.00 | 62 | 1007.9 |
| 20260904212749 | 79 | 18 | 3.5 | 9.6 | 0.00 | 0.00 | 0.00 | 62 | 1008.0 |
| 20260904212250 | 80 | 313 | 3.5 | 9.6 | 0.00 | 0.00 | 0.00 | 61 | 1008.1 |
| 20260904211747 | 79 | 347 | 3.5 | 7.8 | 0.00 | 0.00 | 0.00 | 62 | 1008.0 |
| 20260904211251 | 78 | 325 | 3.5 | 7.8 | 0.00 | 0.00 | 0.00 | 63 | 1008.0 |
| 20260904210746 | 79 | 0 | 3.5 | 8.7 | 0.00 | 0.00 | 0.00 | 61 | 1008.0 |
| 20260904210246 | 79 | 335 | 3.5 | 8.7 | 0.00 | 0.00 | 0.00 | 62 | 1008.0 |
| 20260904205744 | 79 | 333 | 4.3 | 8.7 | 0.00 | 0.00 | 0.00 | 62 | 1007.9 |
| 20260904205244 | 79 | 350 | 4.3 | 8.7 | 0.00 | 0.00 | 0.00 | 62 | 1007.9 |
| 20260904204742 | 80 | 325 | 4.3 | 7.8 | 0.00 | 0.00 | 0.00 | 60 | 1008.0 |
| 20260904204242 | 80 | 305 | 4.3 | 7.8 | 0.00 | 0.00 | 0.00 | 59 | 1008.0 |
| 20260904203241 | 82 | 329 | 3.5 | 7.0 | 0.00 | 0.00 | 0.00 | 58 | 1008.0 |
| 20260904202742 | 81 | 12 | 3.5 | 6.1 | 0.00 | 0.00 | 0.00 | 58 | 1008.1 |
| 20260904202239 | 82 | 321 | 3.5 | 7.8 | 0.00 | 0.00 | 0.00 | 58 | 1008.1 |
| 20260904201738 | 81 | 15 | 2.6 | 8.7 | 0.00 | 0.00 | 0.00 | 58 | 1008.1 |
| 20260904201237 | 81 | 325 | 2.6 | 8.7 | 0.00 | 0.00 | 0.00 | 59 | 1008.1 |
| 20260904200738 | 81 | 318 | 3.5 | 8.7 | 0.00 | 0.00 | 0.00 | 58 | 1008.1 |
| 20260904200236 | 81 | 325 | 3.5 | 7.0 | 0.00 | 0.00 | 0.00 | 59 | 1008.1 |
| 20260904195734 | 81 | 320 | 3.5 | 7.0 | 0.00 | 0.00 | 0.00 | 59 | 1008.2 |
| 20260904194740 | 82 | 323 | 3.5 | 7.0 | 0.00 | 0.00 | 0.00 | 58 | 1008.2 |
| 20260904194234 | 81 | 306 | 2.6 | 7.0 | 0.00 | 0.00 | 0.00 | 59 | 1008.2 |